Regional Weather Roundup
Issued by NWS

Home | Current Version | Previous Version | Text Only | Print | Product List | Glossary On
Versions: 1 2 3 4 5 6 7 8 9 10 11 12 13 14 15 16 17 18 19 20 21 22 23 24 25 26 27
000
ASUS42 KKEY 181710
RWRKEY

FLORIDA REGIONAL WEATHER ROUNDUP FOR THE FLORIDA KEYS
NATIONAL WEATHER SERVICE KEY WEST FLORIDA
1200 PM EST MON DEC 18 2017

...SOUTH FLORIDA AND THE KEYS...

CITY           SKY/WX    TMP DP  RH WIND       PRES   REMARKS
FORT MYERS     MOSUNNY   80  68  66 SE5       30.22F
SW REGIONAL AP SUNNY     79  70  74 S6        30.23F
NAPLES         MOSUNNY   80  69  69 VRB6      30.22F
MIAMI          PTSUNNY   81  69  67 SE7       30.22F
WEST KENDALL   MOSUNNY   80  68  66 E8        30.23F
HOMESTEAD      MOSUNNY   78  73  84 E9        30.22F
MARATHON       MOSUNNY   81  70  69 E10       30.21F
KEY WEST INTL  CLOUDY    81  73  76 E10       30.21F

...INTERNATIONAL WEATHER...

CITY           SKY/WX    TMP DP  RH WIND       PRES   REMARKS
NASSAU BAHAMAS PTSUNNY   81  66  61 NE8       30.22F
CANCUN MEXICO  MOSUNNY   82  73  74 E9        30.15F
COZUMEL MEXICO PTSUNNY   82  75  78 E12       30.12F

ADJACENT COASTAL WATERS...

STATION/POSITION TIME  SKY/WX   TEMP    WIND        PRES    WAVE
                                AIR SEA DIR/SP/G            HT/PER
                 (UTC)          (F)     (DEG/KT/KT) (MB)    (FT/S)
PULASKI SHOAL LI 1700            75      70/ 10/ 11 1023.1F
SAND KEY         1650            74                 1023.6F
LONG KEY         NOT AVBL
MOLASSES REEF    1700            77 77  110/ 10/ 11 1023.4F
FOWEY ROCKS      1700            77 75  110/  8/ 10 1024.1F
Buoy 42097       1630               77                N/A     2/ 4

$$




USA.gov is the U.S. government's official web portal to all federal, state and local government web resources and services.